Cork, Ireland

1:56 PM IST on August 17, 2017 (GMT +0100)
Cork

Weather History for EICK - November, 2013

Change the Weather History Date:

Monday, November 25, 2013

  Actual Average Record
Temperature  
Mean Temperature 40 °F -  
Max Temperature 44 °F 48 °F 55 °F (2001)
Min Temperature 37 °F 38 °F 30 °F (2016)
Degree Days  
Heating Degree Days 24    
Moisture  
Dew Point 35 °F    
Average Humidity 74    
Maximum Humidity 81    
Minimum Humidity 60    
Precipitation  
Precipitation 0.00 in 0.17 in - ()
Sea Level Pressure  
Sea Level Pressure 30.71 in    
Wind  
Wind Speed 6 mph ()    
Max Wind Speed 12 mph    
Max Gust Speed -    
Visibility 6.2 miles    
Events      
Averages and records for this station are not official NWS values.
T = Trace of Precipitation, MM = Missing Value Source: Averaged Metar Reports

Daily Weather History Graph

Daily Weather History Graph

Search for Another Location

Airport or City:

Trip Planner

Search our weather history database for the weather conditions in past years. The results will help you decide how hot, cold, wet, or windy it might be!

Date:

Astronomy

Nov. 25, 2013 Rise Set
Actual Time 8:10 AM GMT 4:31 PM GMT
Civil Twilight 7:31 AM GMT 5:10 PM GMT
Nautical Twilight 6:49 AM GMT 5:52 PM GMT
Astronomical Twilight 6:08 AM GMT 6:32 PM GMT
Moon No Moon Rise 12:53 PM GMT (11/25)
Length of Visible Light 9h 38m
Length of Day
8h 21m
Waning Gibbous, 53% of the Moon is Illuminated
Nov 25
Waning Gibbous
Nov 25
Last Quarter
Dec 3
New
Dec 9
First Quarter
Dec 17
Full

Hourly Weather History & Observations

Time (GMT) Temp. Windchill Dew Point Humidity Pressure Visibility Wind Dir Wind Speed Gust Speed Precip Events Conditions
12:00 AM 43 °F - 36 °F 70% 30.69 in 22 mi North 4.5 mph - -   Mostly Cloudy
12:00 AM 42.8 °F 40.1 °F 37.4 °F 81% 30.66 in 6.2 mi North 4.6 mph - N/A   Mostly Cloudy
12:30 AM 42.8 °F 39.3 °F 37.4 °F 81% 30.66 in 6.2 mi North 5.8 mph - N/A   Mostly Cloudy
1:00 AM 42.8 °F 40.1 °F 37.4 °F 81% 30.66 in 6.2 mi North 4.6 mph - N/A   Mostly Cloudy
1:30 AM 42.8 °F 38.6 °F 37.4 °F 81% 30.66 in 6.2 mi NNE 6.9 mph - N/A   Mostly Cloudy
2:00 AM 42.8 °F 39.3 °F 35.6 °F 76% 30.66 in 6.2 mi North 5.8 mph - N/A   Mostly Cloudy
2:30 AM 42.8 °F 39.3 °F 35.6 °F 76% 30.66 in 6.2 mi NE 5.8 mph - N/A   Mostly Cloudy
3:00 AM 42.8 °F 39.3 °F 35.6 °F 76% 30.66 in 6.2 mi NNE 5.8 mph - N/A   Mostly Cloudy
3:30 AM 42.8 °F 39.3 °F 35.6 °F 76% 30.69 in 6.2 mi NE 5.8 mph - N/A   Mostly Cloudy
4:00 AM 42.8 °F 38.6 °F 35.6 °F 76% 30.69 in 6.2 mi NE 6.9 mph - N/A   Mostly Cloudy
4:30 AM 42.8 °F 40.1 °F 35.6 °F 76% 30.66 in 6.2 mi NNW 4.6 mph - N/A   Mostly Cloudy
5:00 AM 42.8 °F 40.1 °F 35.6 °F 76% 30.66 in 6.2 mi North 4.6 mph - N/A   Mostly Cloudy
5:30 AM 42.8 °F 39.3 °F 35.6 °F 76% 30.69 in 6.2 mi North 5.8 mph - N/A   Mostly Cloudy
6:00 AM 42 °F - 35 °F 68% 30.70 in 22 mi NNW 6.7 mph - -   Mostly Cloudy
6:00 AM 42.8 °F 38.6 °F 35.6 °F 76% 30.69 in 6.2 mi NNW 6.9 mph - N/A   Mostly Cloudy
6:30 AM 42.8 °F 38.0 °F 35.6 °F 76% 30.69 in 6.2 mi North 8.1 mph - N/A   Mostly Cloudy
7:00 AM 42.8 °F 38.0 °F 35.6 °F 76% 30.69 in 6.2 mi NNW 8.1 mph - N/A   Mostly Cloudy
7:30 AM 42.8 °F 38.0 °F 35.6 °F 76% 30.71 in 6.2 mi North 8.1 mph - N/A   Mostly Cloudy
8:00 AM 42.8 °F 38.6 °F 35.6 °F 76% 30.71 in 6.2 mi North 6.9 mph - N/A   Mostly Cloudy
8:30 AM 42.8 °F 38.0 °F 35.6 °F 76% 30.71 in 6.2 mi North 8.1 mph - N/A   Mostly Cloudy
9:00 AM 42.8 °F 38.0 °F 35.6 °F 76% 30.71 in 6.2 mi NNE 8.1 mph - N/A   Mostly Cloudy
9:30 AM 42.8 °F 37.5 °F 35.6 °F 76% 30.71 in 6.2 mi North 9.2 mph - N/A   Mostly Cloudy
10:00 AM 42.8 °F 38.0 °F 35.6 °F 76% 30.74 in 6.2 mi North 8.1 mph - N/A   Mostly Cloudy
10:30 AM 42.8 °F 38.0 °F 35.6 °F 76% 30.74 in 6.2 mi North 8.1 mph - N/A   Mostly Cloudy
11:00 AM 44.6 °F 40.7 °F 35.6 °F 71% 30.74 in 6.2 mi North 6.9 mph - N/A   Mostly Cloudy
11:30 AM 44.6 °F 40.7 °F 35.6 °F 71% 30.71 in 6.2 mi North 6.9 mph - N/A   Mostly Cloudy
12:00 PM 44 °F - 35 °F 60% 30.75 in 28 mi North 6.7 mph - -   Mostly Cloudy
12:00 PM 44.6 °F 40.7 °F 35.6 °F 71% 30.71 in 6.2 mi North 6.9 mph - N/A   Mostly Cloudy
12:30 PM 44.6 °F 39.7 °F 33.8 °F 66% 30.71 in 6.2 mi NNW 9.2 mph - N/A   Mostly Cloudy
1:00 PM 44.6 °F 41.4 °F 33.8 °F 66% 30.71 in 6.2 mi North 5.8 mph - N/A   Mostly Cloudy
1:30 PM 44.6 °F 39.7 °F 33.8 °F 66% 30.71 in 6.2 mi NNW 9.2 mph - N/A   Mostly Cloudy
2:00 PM 44.6 °F 39.7 °F 33.8 °F 66% 30.71 in 6.2 mi NNW 9.2 mph - N/A   Mostly Cloudy
2:30 PM 44.6 °F 39.2 °F 33.8 °F 66% 30.74 in 6.2 mi NNW 10.4 mph - N/A   Mostly Cloudy
3:00 PM 44.6 °F 39.7 °F 33.8 °F 66% 30.74 in 6.2 mi NW 9.2 mph - N/A   Mostly Cloudy
3:30 PM 42.8 °F 38.0 °F 33.8 °F 70% 30.74 in 6.2 mi NNW 8.1 mph - N/A   Mostly Cloudy
4:00 PM 42.8 °F 36.6 °F 33.8 °F 70% 30.74 in 6.2 mi North 11.5 mph - N/A   Mostly Cloudy
4:30 PM 42.8 °F 38.0 °F 33.8 °F 70% 30.74 in 6.2 mi NNW 8.1 mph - N/A   Mostly Cloudy
5:00 PM 42.8 °F 40.1 °F 33.8 °F 70% 30.74 in 6.2 mi NNW 4.6 mph - N/A   Mostly Cloudy
5:30 PM 42.8 °F 38.6 °F 33.8 °F 70% 30.74 in 6.2 mi North 6.9 mph - N/A   Mostly Cloudy
6:00 PM 42 °F - 34 °F 64% 30.78 in 25 mi North 6.7 mph - -   Mostly Cloudy
6:00 PM 42.8 °F 38.6 °F 33.8 °F 70% 30.74 in 6.2 mi North 6.9 mph - N/A   Mostly Cloudy
6:30 PM 42.8 °F 40.1 °F 33.8 °F 70% 30.74 in 6.2 mi North 4.6 mph - N/A   Mostly Cloudy
7:00 PM 41.0 °F 38.0 °F 33.8 °F 76% 30.74 in 6.2 mi NNW 4.6 mph - N/A   Mostly Cloudy
7:30 PM 41.0 °F 38.0 °F 33.8 °F 76% 30.74 in 6.2 mi NW 4.6 mph - N/A   Mostly Cloudy
8:00 PM 41.0 °F 39.0 °F 33.8 °F 76% 30.77 in 6.2 mi NNW 3.5 mph - N/A   Mostly Cloudy
8:30 PM 41.0 °F - 33.8 °F 76% 30.77 in 6.2 mi North 2.3 mph - N/A   Mostly Cloudy
9:00 PM 39.2 °F 37.0 °F 32.0 °F 75% 30.77 in 6.2 mi North 3.5 mph - N/A   Scattered Clouds
9:30 PM 37.4 °F 33.8 °F 32.0 °F 81% 30.77 in 6.2 mi North 4.6 mph - N/A   Partly Cloudy
10:00 PM 37.4 °F 32.8 °F 32.0 °F 81% 30.18 in 6.2 mi North 5.8 mph - N/A   Scattered Clouds
10:30 PM 37.4 °F 33.8 °F 32.0 °F 81% 30.77 in 6.2 mi North 4.6 mph - N/A   Partly Cloudy
11:00 PM 37.4 °F 31.4 °F 32.0 °F 81% 30.77 in 6.2 mi North 8.1 mph - N/A   Scattered Clouds
11:30 PM 37.4 °F 32.8 °F 32.0 °F 81% 30.77 in 6.2 mi North 5.8 mph - N/A   Partly Cloudy